World > North America > United States > Rhode Island > West Warwick   Town of West Warwick, RI

West Warwick, RI Hourly Weather Updates

Feedback E-mail the Weather

Quick Clicks

West Warwick, RI Weather Maps

°F °C°F °C
West Warwick Weather Map
UTC Time: 6/17/2024, 23:02
Your Time:

West Warwick, RI Regional Weather

Expires:202406172300;;197624
ASUS41 KOKX 172210
RWROKX

Regional Weather Roundup
National Weather Service New York NY
600 PM EDT MON JUN 17 2024

Note: "FAIR" indicates few or no clouds below 12,000 feet with no
significant weather and/or obstructions to visibility.


CTZ002-004>006-009-010-012-RIZ004-006-007-MAZ004-011-015-172300-
Southern New England

 In CT
  
CITY           SKY/WX    TMP DP  RH WIND       PRES   REMARKS
Bradley Intl   PTSUNNY   86  64  47 S15       30.10S                  
Hartford       SUNNY     81  62  52 S13G21    30.10S                  
Danbury        SUNNY     81  62  52 VRB7G20   30.13F                  
Wtrbury/Oxford SUNNY     78  63  59 S13G18    30.14F                  
Norwalk Harbor   N/A    N/A N/A N/A S13G18      N/A                   
Bridgeport     SUNNY     78  62  57 S13       30.13F                  
Meriden        LGT RAIN  80  59  48 S15G22    30.12F                  
New Haven      SUNNY     78  65  63 SW12      30.14F                  
Chester        SUNNY     77  63  61 S12G20    30.15F                  
Groton         SUNNY     73  64  73 SW7       30.16R                  
Willimantic    SUNNY     78  60  53 S13       30.14S                  

 In RI
  
CITY           SKY/WX    TMP DP  RH WIND       PRES   REMARKS
Providence     PTSUNNY   74  61  63 S16G22    30.15S                  
Block Island   MOSUNNY   68  62  81 S14       30.18F                  
Westerly       LGT RAIN  71  62  73 S12G21    30.17S                  
 
In MA
  
CITY           SKY/WX    TMP DP  RH WIND       PRES   REMARKS
Boston         PTSUNNY   78  61  55 SW14      30.12R                  
Worcester      SUNNY     77  61  57 SW12G20   30.15R                  
Westfield      SUNNY     83  66  56 S14G20    30.08S                  
Provincetown   SUNNY     70  64  81 S15       30.17R                  
Nantucket      SUNNY     65  60  84 S14       30.20F                  
$$


SKY/WX - Weather  TMP - Temperature  DP - Dew Point  RH - Humidity
WIND - Wind Direction/Speed PRES - Barometric Pressure VSB - Visibility
WCI - Wind Chill Index E13G22 Wind - East Wind 13 mph/Gusts of 22 mph

Trending Headlines

Trending Entertainment Headlines

West Warwick Radar Loop

Use the map search tool if you want to place a location marker on the radar map...

West Warwick Quick Facts

National Two Day Weather Forecast


E-mail the West Warwick Weather Forecast

Voice your opinion or tell us about page issues...